Location: Asheville, NC
(35.6000°N, 82.5500°W)
Time: 00:17:29
(UTC-04:00)

Vanguard 3 - Pass Details

Date: 14 March 2018
Orbit: 508 x 3264 km, 33.3° (Epoch: 22 June)

Event Time Altitude Azimuth Distance (km) Brightness Sun altitude
Rises 10:43:13 0° 254° (WSW) 7,223 11.7 34.0°
Reaches altitude 10° 10:48:09 10° 253° (WSW) 6,182 11.4 34.9°
Maximum altitude 11:07:34 79° 171° (S) 2,661 10.6 38.0°
Drops below altitude 10° 11:19:58 10° 87° (E) 4,188 11.5 40.0°
Sets 11:22:39 0° 86° (E) 4,880 11.6 40.4°
